Location: Monteux
(44.0348°N, 4.9972°E)
Time: 20:49:54
(UTC+00:00)

X-37B - Pass Details

Date: 04 October 2021
Orbit: 385 x 389 km, 45.0° (Epoch: 13 October)

Event Time Altitude Azimuth Distance (km) Brightness Sun altitude
Exits shadow 04:34:24 18° 227° (SW) 1,017 2.2 -12.8°
Maximum altitude 04:34:55 19° 213° (SSW) 992 2.3 -12.7°
Drops below altitude 10° 04:37:15 10° 165° (SSE) 1,406 3.5 -12.3°
Sets 04:39:41 0° 147° (SSE) 2,258 4.9 -11.9°
